Regional Weather Roundup
Issued by NWS

Home | Current Version | Previous Version | Graphics & Text | Print | Product List | Glossary On
Versions: 1 2 3 4 5 6 7 8 9 10 11 12 13 14 15 16 17 18 19 20 21 22 23 24 25 26 27 28 29 30 31 32 33 34 35 36 37 38 39 40 41 42 43 44 45 46 47 48 49 50
000
ASUS43 KDTX 010501
RWRMI
MICHIGAN HOURLY REGIONAL WEATHER ROUNDUP
NATIONAL WEATHER SERVICE DETROIT/PONTIAC MI
1200 AM EST SUN MAR 01 2015

NOTE: "FAIR" INDICATES FEW OR NO CLOUDS BELOW 12,000 FEET WITH NO
SIGNIFICANT WEATHER AND/OR OBSTRUCTION TO VISIBILITY.

MIZ047>049-052>055-059>063-066>070-074>076-081>083-010600-
SOUTHEAST LOWER MICHIGAN

CITY           SKY/WX    TMP DP  RH WIND       PRES   REMARKS
ADRIAN         LGT SNOW  14   9  80 S5        30.53F WCI   6
ALMA           CLOUDY    15   3  59 S5        30.51F WCI   8
ANN ARBOR      LGT SNOW  14   5  67 S6        30.53F WCI   5
BAD AXE        MOCLDY    11   4  73 S6        30.52F WCI   1
CARO           CLOUDY    11   3  70 CALM      30.52F
DETROIT CITY   CLOUDY    17   4  56 S3        30.55F
DETROIT        FLURRIES  16   6  65 SE5       30.56F WCI   9
FLINT          CLOUDY    17   1  49 S3        30.51F
GROSSE ILE     FLURRIES  16   9  73 CALM      30.55S
HILLSDALE      LGT SNOW  14   9  83 SE5       30.47F WCI   6
HOWELL         CLOUDY    15   2  57 S6        30.49F WCI   6

CITY           SKY/WX    TMP DP  RH WIND       PRES   REMARKS
JACKSON        LGT SNOW  15   5  64 S8        30.49F WCI   4
LAMBERTVILLE   LGT SNOW  18  12  79 CALM      30.54F
LANSING        CLOUDY    16   2  54 S8        30.51F WCI   5
LAPEER         CLOUDY    13   4  68 CALM      30.52F
MASON          CLOUDY    15   3  58 S5        30.50S WCI   8
MONROE         LGT SNOW  16   9  73 SE6       30.54F WCI   7
MT. CLEMENS    CLOUDY    12   6  74 SE2       30.53F
PONTIAC        CLOUDY    15   1  53 SE6       30.49F WCI   6
PORT HOPE        N/A     12   1  61 CALM      30.51F
PORT HURON     CLOUDY    12   5  73 CALM      30.56S
TRI CITIES     CLOUDY    15   2  56 S6        30.53S WCI   6
TROY           CLOUDY    18   4  53 CALM      30.55F
SAGINAW HB     MOCLDY    18   5  57 S7        30.53S WCI   8
$$
MIZ043>046-050>051-056>058-064>065-071>073-077>080-010600-
SOUTHWEST LOWER MICHIGAN

CITY           SKY/WX    TMP DP  RH WIND       PRES   REMARKS
BATTLE CREEK   LGT SNOW  16   7  67 S9        30.49F WCI   4
BENTON HARBOR  LGT SNOW  16  13  88 CALM      30.51R FOG
BIG RAPIDS     CLOUDY    12   2  62 CALM      30.47S
COLDWATER      LGT SNOW  14  10  84 SE5       30.48F WCI   6
FREMONT        CLOUDY    11   3  71 CALM      30.48F
HOLLAND        CLOUDY    17  10  74 S7        30.51S WCI   8
GRAND RAPIDS   CLOUDY    17   3  54 S12       30.50S WCI   4
IONIA          CLOUDY    17   6  61 S7        30.49F WCI   8
KALAMAZOO      LGT SNOW  15   9  76 SE7       30.49F WCI   5
LUDINGTON      CLOUDY    18   3  51 S7        30.47F WCI   9
MARSHALL       LGT SNOW  14   8  76 S5        30.49F WCI   6
MOUNT PLEASANT CLOUDY    15   0  52 S5        30.49F WCI   7
MUSKEGON       CLOUDY    16   5  62 S5        30.50F WCI   9
SOUTH HAVEN    LGT SNOW  18  13  82 S5        30.50F WCI  11
$$
MIZ016>042-010600-
NORTHERN LOWER MICHIGAN

CITY           SKY/WX    TMP DP  RH WIND       PRES   REMARKS
ALPENA         PTCLDY    13   3  64 S7        30.47F WCI   3
BEAVER ISLAND  CLEAR     17  10  74 S13       30.42F WCI   3
BELLAIRE       PTCLDY     0  -4  85 CALM      30.48S
CADILLAC       PTCLDY    11   2  66 S5        30.41F WCI   3
CHARLEVOIX     CLEAR     11   6  77 CALM      30.48F
FRANKFORT      CLOUDY    16   4  61 SE7       30.46F WCI   6
GAYLORD        MOCLDY     8  -1  66 S6        30.40F WCI  -2
GRAYLING       MOCLDY    12   1  63 CALM      30.44F
HARBOR SPRINGS PTCLDY     2  -1  85 CALM      30.45F
HOUGHTON LAKE  MOCLDY    11  -2  56 S6        30.45F WCI   1
MANISTEE       PTCLDY    12   1  62 SE5       30.47F WCI   4
OSCODA         MOCLDY    13   0  56 SW6       30.50F WCI   3
PELLSTON       PTCLDY    -6 -11  79 CALM      30.45F
ROGERS CITY    PTCLDY    13   5  70 S5        30.46F WCI   5
TRAVERSE CITY  CLEAR     10   4  76 CALM      30.46F
$$
MIZ007>008-015-010600-
EASTERN UPPER MICHIGAN

CITY           SKY/WX    TMP DP  RH WIND       PRES   REMARKS
KINROSS        CLEAR      9   9 100 S3        30.42F
MACKINAC ISLAN PTCLDY    13   6  74 SW9       30.43F WCI   1
NEWBERRY       PTCLDY    12  10  89 S15       30.37F WCI  -4
S. S. MARIE    CLEAR      7   3  84 SE5       30.42F WCI  -2
MUNISING         N/A     13  -2  51 S8        30.36F WCI   2
$$
MIZ004>006-011>014-085-010600-
CENTRAL UPPER MICHIGAN

CITY           SKY/WX    TMP DP  RH WIND       PRES   REMARKS
MANISTIQUE     PTCLDY    14   5  66 W7        30.39F WCI   4
ESCANABA       PTCLDY    12   1  62 SW7       30.41S WCI   2
MENOMINEE      CLOUDY    12   1  62 SW8       30.40F WCI   1
SAWYER-GWINN   PTCLDY     8  -2  64 SW12      30.29F WCI  -7
$$
MIZ001>003-009>011-084-010600-
WESTERN UPPER MICHIGAN

CITY           SKY/WX    TMP DP  RH WIND       PRES   REMARKS
IRON MOUNTAIN  CLOUDY    10  -2  58 S7        30.32F WCI  -1
HOUGHTON       CLOUDY    14  -4  44 SW9       30.24F WCI   2
COPPER HARBOR    N/A     17  -4  39 VRB7G18   30.26F WCI   8
IRONWOOD       CLOUDY    12  -2  52 SW12G17   30.24S WCI  -2
$$

ABBREVIATIONS USED IN REMARKS
   TC - TEMPERATURE IN CELSIUS
  WCI - WIND CHILL INDEX
   HX - HEAT INDEX
  VSB - VISIBILITY



USA.gov is the U.S. government's official web portal to all federal, state and local government web resources and services.